| time (UTC) | temp C | wind direction | speed KPH | gust KPH | rain 1hr cm | rain 24hr cm | rain mn cm | humidity % | barometer mb |
| 20260831210004 | 17 | 1 | 0.0 | 1.6 | 0.00 | 0.28 | 0.28 | 94 | 1017.9 |
| 20260831205003 | 17 | 1 | 0.0 | 3.2 | 0.00 | 0.28 | 0.28 | 94 | 1017.8 |
| 20260831204004 | 17 | 1 | 0.0 | 3.2 | 0.00 | 0.28 | 0.28 | 94 | 1017.8 |
| 20260831203003 | 17 | 0 | 0.0 | 0.0 | 0.00 | 0.28 | 0.28 | 93 | 1017.8 |
| 20260831201004 | 17 | 0 | 0.0 | 0.0 | 0.00 | 0.28 | 0.28 | 93 | 1017.7 |
| 20260831195004 | 17 | 1 | 0.0 | 4.8 | 0.00 | 0.28 | 0.28 | 93 | 1017.9 |
| 20260831194004 | 17 | 1 | 1.6 | 3.2 | 0.00 | 0.28 | 0.28 | 93 | 1017.9 |
| 20260831193004 | 18 | 358 | 1.6 | 3.2 | 0.00 | 0.28 | 0.28 | 94 | 1017.9 |
| 20260831192004 | 18 | 83 | 1.6 | 3.2 | 0.00 | 0.28 | 0.28 | 94 | 1017.8 |
| 20260831191004 | 18 | 27 | 3.2 | 4.8 | 0.00 | 0.28 | 0.28 | 94 | 1017.5 |
| 20260831190004 | 18 | 69 | 3.2 | 6.4 | 0.00 | 0.28 | 0.28 | 94 | 1017.5 |
| 20260831185003 | 18 | 89 | 3.2 | 6.4 | 0.00 | 0.28 | 0.28 | 94 | 1017.3 |
| 20260831183004 | 18 | 1 | 4.8 | 6.4 | 0.00 | 0.28 | 0.28 | 94 | 1017.6 |
| 20260831182004 | 18 | 19 | 4.8 | 9.7 | 0.00 | 0.28 | 0.28 | 94 | 1017.4 |
| 20260831181003 | 18 | 45 | 6.4 | 8.0 | 0.00 | 0.28 | 0.28 | 93 | 1017.4 |
| 20260831180004 | 18 | 19 | 6.4 | 11.3 | 0.00 | 0.28 | 0.28 | 94 | 1017.3 |
| 20260831175005 | 18 | 4 | 4.8 | 8.0 | 0.00 | 0.28 | 0.28 | 93 | 1017.5 |
| 20260831174005 | 18 | 9 | 3.2 | 12.9 | 0.03 | 0.28 | 0.28 | 93 | 1017.7 |
| 20260831173003 | 18 | 39 | 6.4 | 12.9 | 0.03 | 0.28 | 0.28 | 94 | 1017.6 |
| 20260831172004 | 18 | 106 | 4.8 | 9.7 | 0.03 | 0.28 | 0.28 | 94 | 1017.3 |
| 20260831171004 | 18 | 132 | 3.2 | 6.4 | 0.03 | 0.28 | 0.28 | 94 | 1017.5 |
| 20260831165004 | 18 | 159 | 6.4 | 20.9 | 0.10 | 0.28 | 0.28 | 93 | 1017.6 |
| 20260831164004 | 19 | 174 | 6.4 | 33.8 | 0.10 | 0.23 | 0.23 | 93 | 1018.0 |
| 20260831163003 | 19 | 294 | 1.6 | 9.7 | 0.10 | 0.23 | 0.23 | 92 | 1017.6 |
| 20260831162004 | 19 | 63 | 0.0 | 8.0 | 0.13 | 0.23 | 0.23 | 91 | 1017.0 |
| 20260831160004 | 19 | 88 | 0.0 | 4.8 | 0.20 | 0.23 | 0.23 | 90 | 1017.3 |
| 20260831155004 | 19 | 303 | 1.6 | 14.5 | 0.18 | 0.18 | 0.18 | 86 | 1017.3 |
| 20260831153003 | 20 | 122 | 4.8 | 14.5 | 0.15 | 0.15 | 0.15 | 82 | 1016.4 |
| 20260831152004 | 20 | 169 | 8.0 | 27.4 | 0.13 | 0.13 | 0.13 | 81 | 1017.1 |
| 20260831151003 | 20 | 208 | 11.3 | 27.4 | 0.05 | 0.05 | 0.05 | 72 | 1018.1 |
| 20260831150005 | 22 | 331 | 6.4 | 16.1 | 0.03 | 0.03 | 0.03 | 58 | 1017.0 |
| 20260831145003 | 23 | 317 | 6.4 | 17.7 | 0.00 | 0.00 | 0.00 | 53 | 1016.3 |
| 20260831144004 | 25 | 342 | 6.4 | 27.4 | 0.00 | 0.00 | 0.00 | 50 | 1015.9 |
| 20260831143004 | 27 | 315 | 12.9 | 37.0 | 0.00 | 0.00 | 0.00 | 37 | 1016.4 |
| 20260831142004 | 32 | 252 | 14.5 | 46.7 | 0.00 | 0.00 | 0.00 | 23 | 1015.8 |
| 20260831141004 | 33 | 204 | 0.0 | 8.0 | 0.00 | 0.00 | 0.00 | 22 | 1015.6 |
| 20260831140004 | 35 | 267 | 4.8 | 12.9 | 0.00 | 0.00 | 0.00 | 20 | 1015.7 |
| 20260831134004 | 38 | 334 | 1.6 | 9.7 | 0.00 | 0.00 | 0.00 | 12 | 1015.8 |
| 20260831133004 | 36 | 195 | 3.2 | 8.0 | 0.00 | 0.00 | 0.00 | 19 | 1015.9 |
| 20260831132004 | 33 | 329 | 4.8 | 12.9 | 0.00 | 0.00 | 0.00 | 23 | 1015.9 |
| 20260831131004 | 36 | 164 | 12.9 | 19.3 | 0.00 | 0.00 | 0.00 | 20 | 1016.1 |
| 20260831130004 | 35 | 243 | 1.6 | 12.9 | 0.00 | 0.00 | 0.00 | 20 | 1016.2 |
| 20260831125004 | 35 | 219 | 4.8 | 16.1 | 0.00 | 0.00 | 0.00 | 20 | 1016.2 |
| 20260831124004 | 36 | 231 | 4.8 | 16.1 | 0.00 | 0.00 | 0.00 | 19 | 1016.3 |
| 20260831122004 | 35 | 211 | 4.8 | 12.9 | 0.00 | 0.00 | 0.00 | 20 | 1016.5 |
| 20260831121004 | 36 | 225 | 3.2 | 17.7 | 0.00 | 0.00 | 0.00 | 14 | 1016.8 |
| 20260831120007 | 36 | 208 | 11.3 | 14.5 | 0.00 | 0.00 | 0.00 | 19 | 1016.9 |
| 20260831115003 | 37 | 213 | 11.3 | 19.3 | 0.00 | 0.00 | 0.00 | 18 | 1016.9 |
| 20260831113003 | 33 | 223 | 3.2 | 9.7 | 0.00 | 0.00 | 0.00 | 24 | 1017.2 |
| 20260831111004 | 33 | 232 | 3.2 | 12.9 | 0.00 | 0.00 | 0.00 | 23 | 1017.1 |
| 20260831110004 | 33 | 235 | 3.2 | 9.7 | 0.00 | 0.00 | 0.00 | 24 | 1017.3 |
| 20260831105003 | 32 | 213 | 6.4 | 17.7 | 0.00 | 0.00 | 0.00 | 24 | 1017.5 |
| 20260831104004 | 32 | 202 | 3.2 | 17.7 | 0.00 | 0.00 | 0.00 | 24 | 1017.4 |
| 20260831102003 | 32 | 234 | 4.8 | 12.9 | 0.00 | 0.00 | 0.00 | 26 | 1017.2 |
| 20260831095003 | 32 | 203 | 1.6 | 14.5 | 0.00 | 0.00 | 0.00 | 26 | 1017.6 |
| 20260831094004 | 32 | 195 | 8.0 | 14.5 | 0.00 | 0.00 | 0.00 | 27 | 1017.8 |
| 20260831093004 | 31 | 215 | 3.2 | 11.3 | 0.00 | 0.00 | 0.00 | 29 | 1017.9 |
| 20260831091003 | 30 | 206 | 1.6 | 16.1 | 0.00 | 0.00 | 0.00 | 33 | 1017.9 |
| 20260831090004 | 29 | 197 | 4.8 | 14.5 | 0.00 | 0.00 | 0.00 | 34 | 1018.0 |
| 20260831084004 | 28 | 215 | 3.2 | 11.3 | 0.00 | 0.00 | 0.00 | 36 | 1017.8 |
| 20260831083003 | 27 | 203 | 4.8 | 12.9 | 0.00 | 0.00 | 0.00 | 39 | 1017.9 |
| 20260831082004 | 27 | 225 | 6.4 | 12.9 | 0.00 | 0.00 | 0.00 | 39 | 1018.1 |
| 20260831081004 | 26 | 267 | 6.4 | 9.7 | 0.00 | 0.00 | 0.00 | 41 | 1018.1 |
| 20260831080004 | 26 | 292 | 0.0 | 8.0 | 0.00 | 0.00 | 0.00 | 42 | 1018.1 |
| 20260831075004 | 25 | 202 | 3.2 | 12.9 | 0.00 | 0.00 | 0.00 | 44 | 1018.0 |
| 20260831074004 | 25 | 246 | 1.6 | 14.5 | 0.00 | 0.00 | 0.00 | 45 | 1018.4 |
| 20260831073004 | 25 | 251 | 3.2 | 12.9 | 0.00 | 0.00 | 0.00 | 47 | 1018.3 |
| 20260831072003 | 24 | 209 | 6.4 | 12.9 | 0.00 | 0.00 | 0.00 | 47 | 1018.4 |
| 20260831071004 | 23 | 214 | 4.8 | 8.0 | 0.00 | 0.00 | 0.00 | 51 | 1018.2 |
| 20260831070005 | 23 | 200 | 1.6 | 8.0 | 0.00 | 0.00 | 0.00 | 52 | 1018.2 |
| 20260831065005 | 23 | 209 | 0.0 | 6.4 | 0.00 | 0.00 | 0.00 | 52 | 1018.3 |